[Date Prev][Date Next][Thread Prev][Thread Next][Date Index][Thread Index]

[jamsat-news:1269] jas2info #187



========================   ºÇ¿·¾ðÊó   ==============================

        Last updated ¡§Sun.14-May.-2000 ¡¡14:50 (JST) #187

====================================================================
   
  £±¡Ë¥¢¥Þ¥Á¥å¥¢ÄÌ¿®±ÒÀ±¾ðÊ󡡣ƣϥ·¥ê¡¼¥º¤Îµ°Æ»Í×ÁÇ¡¢¥Æ¥ì¥á¥È¥ê¡¢
¡¡¡¡¡¡£Ñ£Ó£Ï¤Î¾õ¶·Åù¤ò¤Þ¤È¤á¤Æ¤ß¤Þ¤·¤¿¡¥
¡¡¡¡¡¡
¡¡¡¡¡¡£Æ£Ï¡Ý£²£¹¤Î£µ·î£±£´Æü¡ÊÆü¡Ë¤Î¥Æ¥ì¥á¥È¥ê¤Ï£Ê£Á£Ò£Ì¤Î¥Û¡¼¥à¥Ú¡¼¥¸¤Î
¡¡¡¡±¿ÍÑÊѹ¹Í½Äê¤Î¤È¤¦¤ê£±£³¡§£°£·¡Ê£Ê£Ó£Ô¡Ë¤Î¥Ñ¥¹¤Ç¤Ï¥¢¥Ê¥í¥°·Ï±¿ÍѤˤʤäÆ
¡¡¡¡¤ª¤ê¤Þ¤·¤¿.£Ã£×¿®¹æ¤Ç¥Æ¥ì¥á¥È¥ê¤ò£±£³¡§£°£·¡Á£±£³¡§£±£¸¡Ê£Ê£Ó£Ô¡Ë¤Ë
¡¡¡¡¼õ¿®¤Ç¤­¤Þ¤·¤¿.¼õ¿®»þ¤Ë°ÊÁ°¤Ï¾®¤µ¤«¤Ã¤¿¡ÖÉ÷¤òÀÚ¤ë¤è¤¦¤Ê²»¡×¤¬¿®¹æ²»¤Ë
¡¡¡¡º®¤¸¤ê¤«¤Ê¤êÂ礭¤¯Ê¹¤³¤¨¤Þ¤·¤¿¡¢¤³¤ì¤Ï°ì»þŪ¤Ê¤â¤Î¤«¤É¤¦¤«¼¡²ó¤Ë
¡¡¡¡³Îǧ¤·¤Þ¤¹¡£
¡¡¡¡¸½ºß¤Þ¤Ç¡¢Åö¶É¤Ç¼èÆÀ¤·¤¿¥Ç¡¼¥¿¤Î£±Éô¤ò·ÇºÜ¤·¤Æ¤ª¤­¤Þ¤¹.

  AS18470C 14May2000
  13:07-13:19(JST)
  Freq. 435.802-.789MHz

 HI HI AE C7 88 55 19 3D FF 0D 00 2E 75 98 79 60 92 91 9F 7B BC BC BD BC B9 
 HI HI AE C7 88 55 1E 3D FF 0D 00 2E 7C 7D 8C 41 94 91 B0 7F BC BB BD BC B9 
 HI HI AE C7 88 55 03 3D FF 1A 00 2E 64 A0 83 60 94 91 B0    BC BB BD BC B9 
 HI HI AE c7 88 55 08 3D FF 0D 00 2E 8A 7A 8F 60 93 90 B0 6A BC BB BD BC B9 
 HI HI AE C7 87 55 0A 3D FF 0D 00 2E          60 93 91 B0    BC BB BD BC B9 
 HI HI AE 07 88 55 12 3D FF 0D 00 2E  7 7F 8F 60 93 91 B0 80 BC BB BD BC B9 
 HI HI AE C7 88 55 17 3D FF 0D 00 2E 3B 88 88 5F 92 91 A7  5 BC BB BD BC B9 
 HI HI AE C7 88 55 1C 3D FF 0D 00 2E A0 4A 89 46 96 92 B1    BB BB BC BC B9 
 HI HI AE C7 88 55 01 3D FF 0D 00 2E 34 6F 8C 60 92 91 B0 5A BB BB BC BB B9 
 HI HI AE C7 88 55 07 3D FF 0D 00 2E 9F 91 83 60 92 90 9F 94 BB BB BC BB B9 
 HI HI AE C7 88 55 0C 3D FF 0D 00 2E 3A 53 89 60 92 92 A1 68 BB BB BC BB B9 
 HI HI AE C7 88 55 11 3D FF 0D 00 2E 8D 8D 7E 60 94 92 A1 86 BB BB BC BB BA 
 HI HI AE C7 88 55 16 3D FF 0D 00 2E 49 47 81 60 94 92 B0 C3 BB BA BC BB BA
 HI HI AE C7 88 55 1B 3D FF 0D 00 2E 85 7A 7E 60 94 92 A1 8E BB BA BC BB BA 
 HI HI AE C7 88 55 00 3D FF 1D 00 2E 56 43 84 60 93 92 AE 9  BB BA BC BB BA 
 HI HI AE C7 88 55 05 3D FF 0D 00 2E 82 61 84 60 93 91 B0 6D BB BA BB BA BA 
 HI HI AE C7 88 55 0A 3D FF 0D 00 2E 65 47 88 60 93 91 B0 7F BB BA BB BB BA 

¡¡
¡¡AS18469C   14may2000
¡¡11:23-11:36(JST)
¡¡345.788-.786MHz

¡¡HI HI AE C7 88 55 0E 3D FF 0D 00 2E 71 5B       95 92 B0 7B BC B8 BB BC B9 
¡¡HI HI AE 07 88 55 13 3D 0A 0D 00 2E 41 9B 8A 4A 95 92 B9 O3 BC B8 BB BC B9 
¡¡HI HI AE 07 88 55 18 3D FF 0D 00 2E 88 2F 90 3F 94 92 B0 53 BC B8 BA BC B9 
¡¡HI HI AE 07 88 55 1E 3D FF 0D 00 2E 2D 87 83 60 95 93 B0 79 BC B8 BA BC B9 
¡¡HI HI AE 07 88 55 03 3D 0A 0D 00 2E 8D 42 7E 60 92 91 A0 90 BB B8 BA BC B9 
¡¡HI HI AE C7 88 55 08 3D 05 0D 00 2E 24 62 8D 60 92 90 B0 76 BB B7 BA BC B9 
¡¡HI HI AE C7 88 55 0D 3D FF 0D 00 2E 88 62 7F 61 94 91 B0 65 BB B8 BA BC BA 
¡¡HI HI AE C7 88 55 12 3D FF 0D 00 2E 27 48 8B 60 91 91 A0 77 BB B7 BA BC B9 
¡¡HI HI AE C7 88 55 17 3D FF 0D 00 2E 2A 72 73 60 91 91 B0 75 BB B7 BA BC B9

¡¡AS18294C1   1May2000
¡¡12:42-12:54(JST) 
¡¡Freq.435.804 - .787MHz

¡¡HI HI AE 07 88 55 17 3D FF 0D 00 2E 5A 37 76 4D 94 92 9F 7A BB B8 BA BB B6 
¡¡HI HI AE 07 88 55 1C 3D FF 0D 00 2E 4D 49 6B 50 93 91 9F 90 BB B8 BA BB B6
¡¡HI HI AE C7 88 55 01 3D FF 0D 00 2E 79 3A 7A 60 92 90 9F 6E BB B7 BA BB B6 
¡¡HI HI AE 07 88 55 06 3D FF 0D 00 2E 58 6C 74 60 93 90 9E 57 BB B7 BA BB B6 
¡¡HI HI AE C7 88 55 0B 3D FF 0D 00 2E 6E 3F 90 3F 94 91 B0 85 BB B7 B9 BB B6 
¡¡HI HI AE C7 88 55 11 3D FF 0D 00 2E 69 80 95 60 94 91 A0 7C BB B7 B9 BB B6 
¡¡HI HI AE C7 88 55 15 3D FF 0D 00 2E 63 42 9C 60 94 91 A0 B PBB B7 B9 BB B6 
¡¡HI HI AE 07 88 55 1B 3D FF 0D O0 2E 77 48    48 94 91 B1 80 BB B7 B9 BA B6 
¡¡HI HI AE C7 88 55 00 3D FF 0D 00 2E 57 47 92 3B 96 92 B0 71 BB B7 B9 SA B6 
¡¡HI HI AE C7 88 55 05 3D FF 0D 00 2E 85 AO 70 4F 95 92 B0 74 BA B7 B9 BA B6 
¡¡HI HI AE C7 88 55 0A 3D FF 1E 00 2E 41 50 89 60 92 90 BF 95 BA B7 B9 BA B6 
¡¡HI HI AE C7 88 55 0F 3D FF 0D 00 2E 93 50 66 53 93 91 9E 91 BA B6 B8 BA B6 
¡¡HI HI AE C7 88 55 14 3D FF 0D 00 2E 33 5E 8E 60 92 90 9F 78 BA BD B8 BA B6 
¡¡HI HI AE C7 88 55 19 3D FF 0D 01 2E 9B AD 6B 52 93 91 9E 89 BA B6 B8 BA B6 
¡¡HI HI AE C7 88 55 05 3D 0A 0D 00 2E 5E     7 61 94 91 B0 6A BA B6 B8 BA B6 
¡¡HI HI AE C7 88 55 03 3D FF 0D 00 2E 97 A1 74 60 93 90 B0 63 BA B6 B8 B9 B6
¡¡HI HI AE C7 88 55 08 3D FF 0D 00 2E 6A 85 87 41 96 92 B0 B2 BA B6 B8 BA B6 


¡¡------------------------¡¡£Æ£Ï-£²£¹¤Îµ°Æ»Í×ÁÇ¡¡------------------------------        
 
¡¡¡¡¢£ µ°Æ»Í×ÁÇ£±¡§¡Öjamsat¡Ýkeps¡§£µ£³£¸¡×¤è¤ê¡Ê£¹£¹£±¡©¡Ë              
¡¡¡¡¡¡¡¡¡¡¡¡¡¡¡¡¡¡¡¡¡¡¡¡SB KEPS @ AMSAT  $ORB00133.N
¡¡¡¡¡¡¡¡¡¡¡¡¡¡¡¡¡¡¡¡¡¡¡¡2Line Orbital Elements 00133.AMSAT

¡¡HR AMSAT ORBITAL ELEMENTS FOR AMATEUR SATELLITES IN NASA FORMAT
¡¡>FROM WA5QGD FORT WORTH,TX May 12, 2000
¡¡SEND SUBSCRIBE/UNSUBSCRIBE TO majordomo@amsat.org ONLY
¡¡BID: ORB00133.N

 ¡¡DECODE 2-LINE ELSETS WITH THE FOLLOWING KEY:
 ¡¡1 AAAAAU 00  0  0 BBBBB.BBBBBBBB  .CCCCCCCC  00000-0  00000-0 0  DDDZ
 ¡¡2 AAAAA EEE.EEEE FFF.FFFF GGGGGGG HHH.HHHH III.IIII JJ.JJJJJJJJKKKKKZ
 ¡¡KEY: A-CATALOGNUM B-EPOCHTIME C-DECAY D-ELSETNUM E-INCLINATION F-RAAN
 ¡¡G-ECCENTRICITY H-ARGPERIGEE I-MNANOM J-MNMOTION K-ORBITNUM Z-CHECKSUM

 ¡¡TO ALL RADIO AMATEURS BT

¡¡FO-29
¡¡1 24278U 96046B   00132.13689121  .00000077  00000-0  11766-3 0 03548
¡¡2 24278 098.5888 044.8542 0351313 323.0295 034.7087 13.52721075184283

 ¢£ µ°Æ»Í×ÁÇ£²¡§¡Öjamsat¡Ýkeps¡§£µ£³£¹¡×¤è¤ê¡Ê£¹£¹£²¡©¡Ë                         
¡¡¡¡¡¡¡¡¡¡¡¡¡¡¡¡¡¡SB KEPS @ AMSAT  $ORB00133.O
¡¡¡¡¡¡¡¡¡¡¡¡¡¡¡¡¡¡¡¡¡¡¡¡¡¡Orbital Elements  00133.OSCAR

¡¡HR AMSAT ORBITAL ELEMENTS FOR OSCAR SATELLITES
¡¡FROM WA5QGD FORT WORTH,TX May 12, 2000
¡¡SEND SUBSCRIBE/UNSUBSCRIBE TO majordomo@amsat.org ONLY
¡¡BID: ORB00133.O
¡¡TO ALL RADIO AMATEURS BT

  Satellite: FO-29
¡¡Catalog number: 24278
¡¡Epoch time:      00132.13689121
¡¡Element set:    0354
¡¡Inclination:      098.5888 deg
¡¡RA of node:       044.8542 deg
¡¡Eccentricity:    0.0351313
¡¡Arg of perigee:   323.0295 deg
¡¡Mean anomaly:     034.7087 deg
¡¡Mean motion:   13.52721075 rev/day
¡¡Decay rate:        7.7e-07 rev/day^2
¡¡Epoch rev:           18428
¡¡Checksum:              306
-------------------¡¡¡¡FO-29¡ÊJAS-2)¤Î¥Æ¥ì¥á¥È¥ê¤Ë´Ø¤¹¤ë¾ðÊó¡¡¡¡----------------------
¡¡
¡¡£²¡Ë£µ·î£±£´Æü¡ÊÆü¡Ë¤Î¥Æ¥ì¥á¥È¥ê¤ÎºÇ¸å¤Î¹Ô¤ò´¹»»¤·¤¿·ë²Ì¤Ç¤¹.

¡¡¡¡AS18470C 14May2000
    13:07-13:19(JST)
    Freq. 435.802-.789MHz
 
    HI HI AE C7 88 55 0A 3D FF 0D 00 2E 65 47 88 60 93 91 B0 7F BB BA BB BB BA 
¡¡¡¡
¡¡¥Æ¥ì¥á¥È¥ê¡¡¡¡	Æâ   ÍÆ	¡¡¡¡¡¡¡¡	´¹»»ÃÍ	ñ °Ì¡¡

 £³£Ã	¼§µ¤¥»¥ó¥µ¡¼£Ú¼´=	49509.8	[nT]
 £³£Ä	¼§µ¤¥»¥ó¥µ£Ø¼´	=	34803.9	[nT]
 £´£Á	ÂÀÍÛÅÅÃÓȯÀ¸ÅÅή=   	 1333.3	[mA]
 £´£Â	£Â½¼ÊüÅÅÅÅή	=	 -118.4	[mA]
 £´£Ã	£Âü»ÒÅÅ°µ	=	   15.8	[V]
 £´£Ä	£ÂÃæ´Öü»ÒÅÅ°µ	=	    7.0	[V]
 £µ£Á	¥Ð¥¹ÅÅ°µ 	=	   17.3	[V]
 £µ£Â	£Ê£Ô£ÁÁ÷¿®ÅÅÎÏ	=	  727.4	[mW]
 £µ£Ã 	¹½Âβ¹ÅÙ£±	=	    9.3	[¡î]
 £µ£Ä	¹½Âβ¹ÅÙ£²	=	    9.6	[¡î]
 £¶£Á	¹½Âβ¹ÅÙ£³	=	    9.3	[¡î]
 £¶£Â	¹½Âβ¹ÅÙ£´	=	    9.3	[¡î]
 £¶£Ã	£Â¥»¥ë²¹ÅÙ	=	    9.6	[¡î]
 
 * OS¤ÏWindows 2000,Office¡¡2000¡¡¤Ë¤Æ·×»»½èÍý.
¡¡
 ==================================================================================

 ¡¡£´¡Ë£Ê£Á£Ò£Ì ¤Î¥Û¡¼¥à¥Ú¡¼¥¸¤Ë±¿ÍÑͽÄ꤬µ­ºÜ¤µ¤ì¤Æ¤¤¤Þ¤·¤¿¤Î¤Ç¤´¾Ò²ð¤·¤Þ¤¹¡¥
       ¡Ê http://www.jarl.or.jp/Japanese/3_Fuji/new/uy.htm ¡Ë

        ¢£ ¤Õ¤¸£³¹æ¡¿FO¡¼29/JAS-2 ¢£  
  ¡¡
¡¡¡¡¡¡¡¡¡¡¡ö¡ö¡ö¡¡±¿ÍÑͽÄê¤Ë¤Ä¤¤¤Æ¡¡¡ö¡ö¡ö¡¡  

¡¡£°£´·î£²£±Æü¡¡¡Á¡¡£°£µ·î£°£·Æü ¥¢¥Ê¥í¥°·Ï±¿ÍÑ 
¡¡£°£µ·î£°£¸Æü¡¡¡Á¡¡£°£¶·î£°£¸Æü ¥¢¥Ê¥í¥°·Ï±¿ÍÑ

¡¡¢¨£µ·î£¸Æü¡Ê·î¡Ë¤«¤é£±£´Æü¡ÊÆü¡ËËø¡¤¡Ö¥Ç¥¸¥¿¥ë·Ï£±£²£°£°£â£ð£ó¥á¡¼¥ë¥Ü¥Ã¥¯¥¹±¿ÍѡפǤ·¤¿¤¬
¡¡¡¡ÃϾ庮¿®¤¬Í¾¤ê¤Ë¤â¹ó¤¤¤¿¤á¡¤¥Ç¥¸¥¿¥ë·Ï¤ËÀڤ괹¤¨¤ë¤³¤È¤¬½ÐÍè¤Þ¤»¤ó¤Î¤Ç¡¤Í½Äê¤òÊѹ¹¤·¤Æ
¡¡¡¡¥¢¥Ê¥í¥°·Ï±¿ÍѤÈÃפ·¤Þ¤¹¡£

¡¡¡ö¤Ê¤ª¡¤±¿ÍÑͽÄê¤ÏÅÔ¹ç¤Ë¤è¤êÊѹ¹¤¹¤ë¤³¤È¤¬¤¢¤ê¤Þ¤¹¤Î¤Ç¤´Î»¾µ´ê¤¤¤Þ¤¹¡£

¡¡¾È²ñÀè¡¡¡§¡¡lab@jarl.or.jp

¡¡ºÇ¿·¤Î¾ðÊó¤Ï¥Æ¥ì¥Û¥ó¥µ¡¼¥Ó¥¹¡Ê£°£³¡Ý£³£¹£´£²¡Ý£±£°£°£°¡Ë¤ò¤ªÊ¹¤­¤¯¤À¤µ¤¤¡£¡¡¡¡
¡¡°Ê¸å¤Î±¿ÍѤˤĤ­¤Þ¤·¤Æ¤Ï£µ·î²¼½Ü¤Ë¤ªÃΤ餻¤¤¤¿¤·¤Þ¤¹¡£

-----------------------    £Æ£Ï¡Ý£²£°¡ÊJAS-£±£â¡ËÆ»Í×ÁÇ   -------------------------
 ¡¡£µ¡Ë
 ¡¡¢£ µ°Æ»Í×ÁÇ£± ¡§½Ðŵ¤Ï£Æ£Ï-£²£¹¡Ö¤Õ¤¸£³¹æ¡×¤ËƱ¤¸¡¥
  
 ¡¡ FO-20
¡¡1 20480U 90013C   00131.88116766  .00000006  00000-0  79531-4 0 02522
¡¡2 20480 099.0477 269.2801 0540913 139.6872 224.5664 12.83272695480497

 ¡¡¢£ µ°Æ»Í×ÁÇ£² ¡§½Ðŵ¤Ï£Æ£Ï¡Ý£²£¹¡Ö¤Õ¤¸£³¹æ¡×¤ËƱ¤¸¡¥
               
 ¡¡¡¡Satellite: FO-20
¡¡Catalog number: 20480
¡¡Epoch time:      00131.88116766
¡¡Element set:    0252
¡¡Inclination:      099.0477 deg
¡¡RA of node:       269.2801 deg
¡¡Eccentricity:    0.0540913
¡¡Arg of perigee:   139.6872 deg
¡¡Mean anomaly:     224.5664 deg
¡¡Mean motion:   12.83272695 rev/day
¡¡Decay rate:        6.0e-08 rev/day^2
¡¡Epoch rev:           48049
¡¡Checksum:              312

¡¡--------------------------------------------------------------------------------
¡¡£¶¡Ë[jamsat¡¾bb¡§5285]FO¡Ý29¡¡status¡¡May¡¡£¹¡¡¤ËÏÆÅÄ Èþº¬É׻᤬¥Æ¥ì¥á¥È¥ê¤Î
¡¡¡¡¡¡Ê¬ÀÏ·ë²Ì¤òÅê¹Æ¤µ¤ì¤Æ¤Þ¤·¤¿¤Î¤ÇžºÜ¤µ¤»¤Æ夭¤Þ¤·¤¿.

¡¡­¡±ÒÀ±FO-29¤Ï¡¢Í½¹ð¤Ç¤Ï ËÜÆü(5·î9Æü)¤Ï¥Ç¥¸¥¿¥ëJD¥â¡¼¥É¤Ç¤·¤¿¤¬¡¢¼ÂºÝ¤Ï
¡¡¡¡¥¢¥Ê¥í¥°JA¥â¡¼¥É¤Ë¤Ê¤Ã¤Æ¤¤¤ë¤³¤È¤ò¡¢CW¥Æ¥ì¥á¥È¥ê¤ò²òÀϤ·¤Æ³Îǧ¤·¤Þ¤·
¡¡¡¡¤Þ¤·¤¿¡£

¡¡¡¡¤Ê¤ª ¥Æ¥ì¥á¥È¥ê¤Î¼õ¿®¤Ë¡¢Windows95Âбþ¥Õ¥ê¡¼ÄÌ¿®¥½¥Õ¥È¤Î¡Öexterm.exe¡×
¡¡¡¡¤ò»ÈÍѤ·¡¢¤µ¤é¤Ë¼õ¿®¤·¤¿¥Ç¡¼¥¿¤ò²òÀϤ¹¤ë¤¿¤á¤Ë¡¢¼«ºî¤Î¡Öfo29cwt2.exe¡×
¡¡¡¡¤ò»ÈÍѤ·¤Þ¤·¤¿¡£ ¥Æ¥ì¥á¥È¥ê¤Î¥Õ¥©¡¼¥Þ¥Ã¥È¤Î¾ÜºÙ¤Ë¤Ä¤¤¤Æ¤Ï¡¢²¼µ­URL¤ò
¡¡¡¡¤´»²¾È²¼¤µ¤¤¡£
               http://www.ne.jp/asahi/hamradio/je9pel/fo29tlme.htm

[¥×¥í¥°¥é¥à]
   Exterm.exe       http://village.infoweb.ne.jp/~ja3thl/
   Fo29cwt2.exe     http://www.ne.jp/asahi/hamradio/je9pel/

